EDT,Max TemperatureF,Mean TemperatureF,Min TemperatureF,Max Dew PointF,MeanDew PointF,Min DewpointF,Max Humidity, Mean Humidity, Min Humidity, Max Sea Level PressureIn, Mean Sea Level PressureIn, Min Sea Level PressureIn, Max VisibilityMiles, Mean VisibilityMiles, Min VisibilityMiles, Max Wind SpeedMPH, Mean Wind SpeedMPH, Max Gust SpeedMPH,PrecipitationIn, CloudCover, Events, WindDirDegrees
2007-4-1,67,63,58,58,56,53,90,82,73,30.12,30.07,30.02,10,9,5,18,9,25,0.05,6,Rain,179
2007-4-2,77,64,51,57,50,38,93,61,29,30.13,30.07,30.02,10,6,0,13,4,20,0.00,4,Fog,340
2007-4-3,78,61,44,50,46,42,93,62,30,30.15,30.03,29.85,10,10,10,24,5,33,0.00,1,,193
2007-4-4,70,57,44,52,42,21,93,58,23,30.01,29.88,29.80,10,10,7,26,14,32,0.08,3,Rain-Thunderstorm,343
2007-4-5,50,42,33,27,20,15,64,47,29,29.99,29.93,29.84,10,10,10,28,17,32,0.00,0,,348
2007-4-6,50,38,26,28,22,17,78,54,29,29.97,29.86,29.73,10,8,1,26,14,30,T,6,Snow,347
2007-4-7,38,29,20,23,16,5,84,57,29,30.06,29.90,29.84,10,6,0,25,11,32,0.01,5,Fog-Snow,341
2007-4-8,48,35,22,16,12,9,59,42,25,30.14,30.06,29.98,10,10,10,20,8,22,0.00,0,,343
2007-4-9,52,41,30,21,17,13,63,43,23,30.14,30.05,29.96,10,10,10,12,4,15,0.00,3,,318
2007-4-10,57,41,25,25,22,19,81,54,26,30.11,30.02,29.95,10,10,9,16,5,20,0.00,1,,137
2007-4-11,48,46,43,45,41,25,93,68,42,29.94,29.82,29.72,10,4,1,13,7,16,0.35,8,Rain,174
2007-4-12,67,53,38,45,37,20,100,58,16,30.00,29.77,29.70,10,4,0,25,9,36,0.00,3,Fog,320
2007-4-13,64,50,36,29,24,16,64,42,19,30.16,30.09,29.99,10,10,10,22,14,28,T,1,Rain,339
2007-4-14,68,55,42,54,40,28,86,58,29,30.10,29.90,29.65,10,9,3,20,6,25,0.24,5,Rain,149
2007-4-15,59,49,38,56,47,24,93,74,55,29.68,29.45,29.31,10,7,2,49,22,66,0.59,8,Rain-Snow-Thunderstorm,350
2007-4-16,60,51,41,26,22,18,50,36,21,29.83,29.77,29.68,10,10,10,46,30,58,0.00,1,,326
2007-4-17,67,57,47,25,20,12,37,27,16,29.84,29.79,29.75,10,10,10,43,22,56,0.00,0,,347
2007-4-18,68,57,45,49,36,23,89,58,27,29.78,29.75,29.69,10,10,10,16,5,21,0.01,3,Rain,354
2007-4-19,58,50,42,47,43,35,100,78,56,29.99,29.83,29.75,10,6,0,20,6,24,0.41,5,Fog-Rain,22
2007-4-20,66,54,44,42,39,35,85,60,33,30.18,30.11,30.01,10,10,7,8,5,,0.00,5,,8
2007-4-21,71,54,37,41,38,33,92,59,25,30.27,30.21,30.16,10,9,5,12,4,16,T,0,,196
2007-4-22,76,57,38,42,35,28,89,54,19,30.31,30.24,30.20,10,10,7,15,5,20,0.00,0,,173
2007-4-23,77,58,39,44,40,35,92,60,27,30.33,30.21,30.13,10,10,10,17,5,23,0.00,0,,187
2007-4-24,77,63,48,54,49,43,86,64,41,30.17,30.11,30.05,10,10,9,13,3,16,0.00,2,,328
2007-4-25,81,66,50,53,48,38,96,59,21,30.08,30.01,29.90,10,8,0,20,7,29,0.00,0,Fog,194
2007-4-26,72,65,58,57,54,51,78,68,57,29.99,29.92,29.86,10,10,9,22,8,28,0.03,5,Rain,180
2007-4-27,73,63,52,55,49,41,93,64,34,29.94,29.86,29.82,10,10,7,21,8,26,0.00,2,,323
2007-4-28,66,57,47,46,41,38,71,56,40,30.05,30.00,29.96,10,10,10,23,9,29,0.00,2,,342
2007-4-29,74,59,44,45,38,33,89,56,23,30.10,30.06,30.02,10,10,10,22,8,26,0.00,0,,340
2007-4-30,83,63,42,44,39,36,83,51,18,30.15,30.07,29.99,10,10,6,15,4,21,0.00,0,,292